Location: Blanot
(47.1713°N, 4.2340°E)
Time: 04:43:40
(UTC+00:00)

Cosmos 2082 Rocket - Pass Details

Date: 14 July 2020
Orbit: 833 x 853 km, 71.0° (Epoch: 06 August)

Event Time Altitude Azimuth Distance (km) Brightness Sun altitude
Exits shadow 02:22:39 17° 204° (SSW) 2,004 3.5 -13.0°
Maximum altitude 02:27:05 87° 117° (ESE) 860 2.2 -12.5°
Drops below altitude 10° 02:32:49 10° 28° (NNE) 2,489 6.1 -11.9°
Sets 02:35:17 0° 28° (NNE) 3,426 7.2 -11.7°
